Back to catalog

STARLINK-5238

AliveCommunicationsVLEO
NORAD 54188·PAYLOAD·🇺🇸 United States

Launched Oct 28, 2022 from Vandenberg Space Force Base

Loading…

Next Passes (next 24 hours)

TLE

FreshSource: CelesTrak SupGP

Epoch: Sep 14, 2026, 20:42 UTC

1 54188C 22141AH  26257.86298611  .00090955  00000+0  26049-2 0  2576
2 54188  53.1591 214.0455 0001387  88.9871 221.5198 15.35321632    13

Track STARLINK-5238 in real time with AllMySat

Download on the App Store